Theta_e
308 310 312 314 312 313 314 311 310 308 311 313 308 306 311 312 312 317 316 309 307 306 306 307 307 308 308 309 307 306 308 310 313 313 314 312 308 308 307 307 308 308 309 309 310 314 313 312 313 314 315 316 318 317 315 315 316 319 322 321 321 321 318 316 315 313 313 312 309 309 309 310 311 309 308 308 307 308 308 308 308 308 308 308 308 309 308 308
307 309 313 316 316 317 316 313 311 309 310 313 309 305 307 310 309 310 311 308 305 305 305 306 308 308 308 309 307 306 308 311 314 313 312 310 307 307 307 307 307 308 308 309 313 315 312 313 314 315 316 316 317 316 315 314 314 319 321 320 321 319 315 312 311 310 312 312 310 310 309 309 309 309 308 307 308 308 308 308 308 309 308 308 308 308 308 307
306 307 311 316 317 318 317 316 315 312 312 313 311 308 306 309 311 308 307 308 305 303 304 306 308 308 308 309 307 306 308 314 315 313 311 309 307 307 307 307 307 307 307 309 312 312 311 312 314 316 315 316 317 315 315 314 314 317 319 321 320 315 312 310 310 310 309 310 311 310 309 308 308 308 308 307 308 309 308 309 309 309 308 309 308 308 308 307
307 306 309 315 318 318 318 318 317 315 314 315 314 312 308 309 315 311 305 306 305 303 306 307 308 308 308 308 307 307 312 317 315 313 312 308 307 307 307 307 307 307 307 308 311 310 310 311 314 315 315 317 317 315 315 314 314 315 316 318 316 313 313 310 309 308 308 308 309 310 309 308 309 308 308 308 309 309 309 310 310 310 309 309 309 309 309 308
306 306 307 312 317 319 319 318 319 318 317 319 319 315 311 310 315 312 304 303 304 304 307 309 309 309 308 309 308 307 313 319 315 313 311 307 307 307 307 307 306 306 306 309 310 310 310 312 315 315 315 317 317 316 315 312 311 313 314 315 313 312 312 310 308 307 307 308 308 309 309 308 309 308 308 308 309 310 310 310 310 310 310 310 311 310 310 309
304 306 307 309 314 318 319 318 319 320 319 321 321 318 314 311 311 310 305 302 303 305 308 309 309 309 308 309 308 307 315 319 314 312 309 307 308 308 307 306 306 307 307 309 309 310 311 313 314 315 315 315 317 317 313 310 310 312 314 312 311 310 311 309 308 307 306 307 308 308 308 308 308 308 308 308 308 309 310 309 309 309 308 309 310 311 311 311
304 305 307 309 311 315 316 316 318 320 320 320 321 321 319 314 308 306 305 302 304 307 308 310 310 309 308 308 309 311 317 317 312 311 308 307 308 308 307 306 306 307 308 310 311 313 312 312 314 315 316 315 316 315 311 310 309 312 314 312 310 309 309 308 307 307 305 306 307 308 307 307 308 308 309 309 308 309 309 309 309 308 307 307 308 310 310 311
305 305 306 307 310 313 314 316 318 320 320 321 322 322 321 316 306 302 303 303 305 307 309 310 310 310 308 309 314 316 319 315 310 309 308 307 309 308 307 307 307 307 309 311 312 314 315 314 313 313 315 315 315 313 311 311 311 311 313 312 309 308 308 307 306 307 306 306 307 306 307 307 307 308 309 309 309 309 310 310 309 308 307 307 307 308 309 310
304 305 304 306 308 311 314 317 319 320 321 321 321 322 321 314 304 302 303 304 306 308 309 310 311 310 307 311 317 317 317 313 308 309 308 307 309 309 310 310 310 309 310 312 311 314 318 315 313 314 314 312 312 312 311 313 313 311 311 310 309 309 309 307 306 307 307 308 308 308 307 308 308 309 309 309 309 308 309 309 309 309 308 307 307 307 308 309
303 303 304 306 309 311 314 318 320 321 321 321 322 321 315 307 302 302 303 305 307 308 309 310 311 309 308 314 318 316 315 311 309 309 308 307 309 310 311 311 310 310 311 312 312 314 317 317 318 319 315 311 310 309 309 312 311 308 308 308 308 309 308 308 307 307 308 308 310 311 309 309 310 310 309 310 311 310 309 309 309 309 308 308 308 307 307 307
302 304 307 309 310 310 312 317 321 321 319 319 319 313 306 302 302 303 305 307 308 309 309 310 311 309 312 317 318 318 314 310 309 309 307 308 309 308 310 309 307 310 313 312 313 315 316 315 317 318 314 312 310 308 308 309 308 307 308 308 308 309 308 308 308 308 308 307 309 310 309 310 311 311 310 310 311 310 310 310 309 309 309 308 308 308 308 307
304 307 309 309 308 307 308 315 321 321 317 314 310 304 302 302 303 305 307 307 308 309 309 311 311 309 315 319 317 316 312 309 309 309 308 308 309 308 308 307 307 310 313 314 315 314 311 311 316 319 317 314 310 308 309 307 307 307 307 308 309 309 308 308 307 308 308 307 307 307 308 311 313 313 312 310 310 310 310 310 310 309 308 309 308 309 309 308
303 305 306 306 305 304 305 310 316 316 311 308 304 302 302 303 305 307 308 308 308 308 308 311 310 308 316 321 316 312 310 309 309 309 309 309 311 311 308 308 307 309 310 313 316 312 308 310 317 322 319 316 311 309 309 306 306 308 306 307 308 309 309 308 308 308 307 307 308 308 309 310 314 316 312 311 310 310 310 310 310 310 309 309 309 310 310 310
301 301 302 303 303 303 302 304 307 307 305 303 303 303 303 305 308 309 308 309 308 308 308 309 310 312 318 320 313 309 309 309 310 311 310 310 314 313 309 308 306 307 308 310 311 309 308 309 313 318 317 316 312 309 309 306 306 309 309 308 309 309 310 309 308 308 307 308 308 309 309 308 310 316 314 311 311 310 311 311 311 311 310 310 311 312 311 310
301 301 302 302 302 302 302 303 303 303 303 303 303 303 305 308 309 308 308 309 308 309 310 311 313 316 320 319 312 308 310 311 311 311 310 312 316 313 311 309 307 307 306 307 308 307 309 311 315 317 314 313 313 313 312 308 307 310 311 312 311 310 311 311 309 308 308 309 308 310 312 310 310 315 314 312 312 311 311 311 312 312 311 311 312 311 311 309
301 301 302 302 302 302 302 303 303 303 303 303 303 304 307 308 307 308 310 309 309 309 312 317 318 317 320 320 314 311 313 314 311 311 310 312 314 312 312 313 311 309 307 306 308 310 311 316 319 316 312 312 314 317 316 312 311 312 312 313 313 311 313 313 310 309 311 310 309 311 313 312 312 314 313 312 312 311 311 311 312 312 312 312 311 311 310 310
301 301 302 302 302 302 303 303 304 304 304 303 304 307 308 308 308 309 311 310 310 310 313 319 318 316 318 315 314 316 317 314 310 311 311 310 312 312 315 318 312 310 310 309 312 315 314 318 319 315 313 315 315 315 316 315 314 313 312 312 313 312 311 312 312 311 311 311 310 311 311 311 311 313 313 313 312 312 312 312 312 313 313 312 311 311 310 310
301 301 302 302 302 303 303 304 303 303 304 303 305 307 307 309 310 311 314 312 311 311 312 314 313 316 318 315 316 318 316 313 310 312 313 311 310 310 314 317 313 313 315 313 313 318 318 318 319 316 314 313 313 313 316 318 317 317 315 313 315 314 312 312 314 312 310 311 312 312 312 311 311 313 313 314 313 313 313 313 314 314 313 312 311 311 309 310
302 302 302 303 303 304 304 303 303 303 303 304 306 308 308 310 311 313 317 316 315 317 318 317 315 318 319 317 318 316 312 310 311 314 315 312 310 312 315 315 315 316 315 315 315 318 318 316 318 320 317 314 315 315 316 318 317 318 318 315 316 315 313 314 314 311 310 313 313 313 313 313 313 314 314 316 316 314 313 313 315 316 315 314 312 312 311 311
302 302 301 302 303 304 303 302 303 302 304 306 307 311 313 315 317 318 319 318 318 319 320 322 320 320 319 317 317 314 312 312 314 316 313 310 312 317 319 315 317 317 316 319 318 318 318 317 320 325 323 320 321 321 318 316 315 316 316 315 317 316 313 316 315 311 311 314 315 315 315 314 315 316 316 317 317 317 315 314 315 316 317 316 314 313 312 312
302 301 301 302 303 304 303 303 303 303 305 306 307 313 317 319 321 321 319 319 317 314 317 319 318 319 317 315 314 313 316 316 315 315 310 310 315 319 319 317 319 318 320 325 320 318 318 317 323 324 320 317 317 319 318 317 316 314 313 314 317 318 317 317 316 311 311 315 317 316 316 315 316 316 317 317 318 318 317 316 316 315 316 316 316 317 315 315
302 301 302 302 303 305 304 304 304 305 306 305 307 313 316 316 315 313 315 320 317 313 315 315 316 317 314 313 310 310 318 318 317 318 312 313 319 320 318 316 318 319 321 323 317 316 317 318 321 315 313 315 315 316 318 319 319 316 315 316 317 320 320 318 316 312 311 315 318 316 316 315 314 314 315 315 316 317 318 318 318 317 317 316 317 318 317 318
302 301 302 302 303 305 305 305 305 305 306 305 309 313 313 312 309 308 313 318 319 316 316 316 317 317 316 316 311 311 320 318 320 322 313 315 319 318 319 317 317 320 321 321 318 319 321 321 316 310 311 317 316 316 317 318 319 318 318 319 320 321 321 319 318 315 313 314 316 317 315 314 315 316 317 316 317 320 324 326 323 321 320 319 320 320 318 318
302 301 302 302 302 304 305 305 305 305 306 306 309 311 311 310 306 309 316 318 319 318 316 315 314 315 316 315 311 314 320 316 319 320 313 318 322 318 322 322 319 318 320 323 320 321 325 318 311 310 312 316 317 317 319 319 318 321 322 322 323 321 319 319 318 318 317 317 316 316 318 320 322 323 323 321 321 322 323 323 324 322 321 321 323 323 319 318
302 302 302 301 302 305 305 305 305 306 308 307 308 309 309 309 307 309 317 319 318 319 316 316 315 314 312 311 312 316 319 317 317 315 311 316 321 321 322 321 319 320 324 326 321 321 323 313 309 314 314 315 318 319 321 321 319 322 324 322 321 319 319 320 320 322 324 322 318 316 322 328 325 321 322 321 322 322 320 321 323 321 319 319 319 320 319 319
302 302 302 302 303 304 305 309 311 309 310 310 310 310 308 308 308 310 316 318 319 319 318 318 318 314 312 313 314 315 319 320 314 311 311 311 315 320 322 320 318 322 325 322 318 319 317 310 310 316 316 316 319 319 321 320 318 321 320 317 317 317 320 321 320 322 325 324 320 318 322 325 321 316 318 322 323 324 321 322 323 319 318 317 316 317 317 319
302 302 302 302 302 304 309 315 313 310 313 315 312 310 309 309 310 310 315 319 320 319 318 318 315 313 315 315 314 317 322 321 313 312 311 310 313 316 318 321 319 319 320 317 315 318 314 311 312 315 318 319 320 321 319 316 318 321 316 314 317 317 318 320 320 321 322 322 321 318 319 322 321 318 319 324 325 325 324 324 323 320 319 318 315 315 315 316
303 302 302 303 301 304 311 314 314 315 317 314 309 309 310 309 309 311 315 318 317 316 318 318 312 311 315 314 315 319 320 318 320 318 310 309 315 316 317 323 322 320 318 315 316 318 314 315 315 315 317 320 319 317 315 315 320 319 312 314 316 315 317 318 319 321 321 321 322 320 317 322 326 321 319 324 323 324 325 325 324 320 320 319 316 315 315 316
303 302 303 303 301 304 309 310 312 316 315 309 308 310 309 308 311 314 317 316 316 317 318 317 314 314 316 316 317 318 316 316 320 318 311 311 315 315 319 322 321 320 316 316 320 319 314 313 313 315 318 318 314 310 311 315 319 315 311 314 314 313 316 317 318 321 320 321 325 323 318 321 328 324 319 321 323 325 325 322 323 321 320 320 317 316 316 315
302 303 303 303 303 304 306 308 310 311 310 309 310 310 309 309 314 318 318 316 318 320 317 315 317 317 317 318 319 317 317 318 316 314 314 316 315 315 317 316 317 320 318 318 321 317 311 309 310 313 314 312 309 308 310 313 314 313 313 318 319 317 317 317 318 318 320 327 325 319 316 316 324 327 323 322 324 325 321 319 322 322 320 320 318 318 316 314
301 303 303 303 307 307 308 312 312 309 309 310 309 309 312 314 315 316 316 315 318 318 316 317 317 317 317 319 320 317 317 317 316 316 317 317 317 315 316 316 317 320 320 322 321 316 311 311 312 311 309 309 310 311 310 309 311 314 317 321 323 322 319 318 318 317 323 331 323 315 315 316 321 327 324 320 320 319 318 318 320 320 321 320 319 317 315 314
301 304 304 304 307 308 309 312 309 307 309 309 310 313 316 316 315 315 315 315 316 315 317 320 319 318 317 317 319 319 319 318 316 317 320 320 318 317 319 321 321 322 323 323 323 321 319 315 312 310 307 308 314 317 314 311 312 315 319 321 324 325 322 322 325 324 327 327 319 314 315 319 322 319 317 317 317 317 319 321 322 321 320 320 319 317 316 317
302 304 304 305 306 306 307 307 305 308 310 308 313 318 314 314 316 317 315 314 315 316 317 319 318 317 315 316 319 319 320 321 318 318 321 320 319 320 323 323 322 323 322 320 321 323 323 317 312 313 311 308 312 320 322 319 315 316 320 321 325 327 323 324 325 324 324 322 318 315 315 322 322 317 317 318 316 318 318 319 321 322 321 321 320 318 317 317
302 303 304 304 304 304 305 304 306 309 308 308 316 318 312 313 316 316 316 314 314 316 317 318 318 317 315 318 320 318 318 321 318 317 319 318 317 321 324 323 321 320 318 317 319 319 321 322 316 315 314 309 310 315 316 318 317 318 320 319 323 325 323 325 325 322 324 323 319 315 318 325 323 320 322 320 317 318 315 316 317 317 319 320 320 319 318 316
303 303 303 304 304 304 304 304 307 308 308 312 316 315 313 315 314 315 319 317 315 317 318 318 319 318 318 319 319 318 319 321 317 316 319 319 319 321 324 325 323 320 318 318 319 317 318 324 316 310 311 308 310 311 309 313 317 317 318 319 322 321 321 325 323 320 322 323 322 320 323 327 323 321 322 319 319 319 315 316 315 314 315 317 319 319 318 316
304 303 305 307 305 305 305 306 308 307 311 317 316 315 317 316 315 318 321 317 317 320 319 318 319 319 320 319 318 319 318 318 317 316 318 319 320 321 322 324 322 320 319 318 319 317 316 321 312 307 309 306 306 308 306 311 317 315 316 318 317 314 316 323 321 317 318 322 324 322 323 324 320 320 322 319 320 319 316 316 315 314 315 316 320 320 318 317
308 306 309 310 304 304 306 306 307 308 314 319 316 317 317 314 317 319 319 317 317 318 319 319 319 318 319 318 320 321 317 316 316 316 317 317 319 320 320 322 319 318 320 318 317 318 316 319 313 309 312 307 303 306 307 308 311 315 317 316 315 313 314 318 320 320 321 323 323 320 320 320 316 318 321 319 322 323 319 317 315 315 316 317 320 320 319 318
311 308 312 312 304 304 306 306 307 311 315 317 315 317 315 313 316 316 316 316 316 317 318 319 318 316 316 317 320 320 316 316 316 315 316 316 318 319 320 322 317 313 315 313 313 316 315 317 316 310 312 309 304 308 313 310 308 312 315 313 314 317 318 318 318 320 321 322 323 321 319 318 316 318 319 318 322 324 321 319 316 316 318 318 318 319 319 319
310 311 315 311 303 304 306 306 310 313 315 316 315 315 314 314 314 311 313 316 317 317 318 321 319 316 314 316 321 321 316 316 316 314 316 317 317 318 318 321 317 310 309 310 312 315 315 317 319 312 310 310 308 311 319 318 310 309 312 312 312 314 319 320 319 319 320 321 324 322 319 319 319 321 320 318 318 318 320 324 323 321 320 319 318 318 319 319
310 314 316 308 303 305 305 307 314 315 315 317 316 314 314 315 313 308 309 315 318 317 319 323 320 315 315 315 318 320 317 318 318 316 316 315 315 318 317 317 316 310 308 311 314 315 314 315 319 314 308 312 315 316 319 322 317 312 313 314 312 312 315 317 317 318 319 320 321 320 318 319 319 320 319 317 316 316 319 324 327 325 323 321 320 319 320 319
309 313 315 307 303 305 307 312 316 315 316 318 315 316 315 313 312 310 308 311 315 314 315 320 320 317 317 315 316 318 316 317 317 315 317 316 313 317 317 312 313 312 310 311 313 315 314 314 317 318 315 318 321 314 311 315 316 314 315 316 316 316 317 318 319 318 317 318 320 320 318 317 318 319 318 316 316 318 321 321 323 325 323 322 322 320 321 320
310 313 313 306 303 307 312 316 314 312 316 318 314 315 315 310 310 312 309 308 312 312 311 315 317 317 317 316 317 317 315 315 316 315 317 317 316 319 316 309 310 312 312 314 314 314 313 313 315 319 321 319 314 307 305 306 308 310 313 315 316 316 317 320 322 320 318 318 318 318 318 317 318 319 319 318 318 319 320 319 321 322 320 321 323 322 322 321
313 312 309 303 303 309 315 317 314 313 314 313 309 311 312 310 310 310 309 310 313 313 312 314 315 315 316 315 315 315 314 316 319 318 317 317 319 316 309 306 309 311 311 314 315 312 312 314 316 318 320 315 307 304 304 303 306 311 313 312 313 316 318 318 318 317 319 320 318 317 319 316 318 325 324 320 321 322 321 319 319 321 319 319 321 322 323 323
314 312 310 306 303 309 317 318 317 316 314 311 311 311 310 309 308 310 311 312 312 313 313 314 315 316 315 313 313 313 314 316 318 319 318 318 318 308 304 306 309 311 312 315 315 312 314 316 317 318 319 318 315 313 311 308 308 312 315 313 313 315 316 315 314 314 318 323 321 319 318 315 318 327 326 321 323 324 322 317 317 320 321 320 319 321 324 324
311 311 311 308 305 309 315 317 315 316 316 314 312 313 314 312 308 308 311 311 310 311 313 314 315 314 312 311 311 312 312 312 314 317 316 317 317 307 303 305 307 309 312 311 311 313 315 316 319 321 321 321 321 321 321 319 313 311 315 315 313 314 314 315 317 317 318 322 321 318 317 313 315 320 319 318 321 321 319 317 317 319 321 321 320 321 323 324
310 311 310 310 310 311 312 312 311 313 316 314 311 313 316 316 311 306 307 310 309 309 310 311 312 312 310 311 311 312 311 309 309 312 313 315 317 309 303 304 305 307 310 310 310 312 313 314 318 321 322 322 321 319 318 317 315 315 318 317 315 314 314 314 317 317 317 318 318 317 316 314 313 314 313 313 315 317 318 318 319 320 320 321 322 322 323 323
308 312 313 311 312 312 311 311 311 311 314 313 312 314 314 314 313 308 305 306 307 308 309 309 310 311 312 312 313 313 312 308 307 310 311 312 314 309 304 304 304 306 310 312 310 310 312 315 317 317 317 318 319 318 317 317 316 317 321 322 318 315 314 315 315 314 314 316 315 315 317 316 314 313 313 313 313 315 317 317 317 319 321 323 322 321 320 319
307 312 313 307 308 312 312 313 313 312 312 312 311 313 313 313 315 313 309 305 304 306 310 311 311 312 313 314 314 314 312 309 310 313 312 311 312 311 309 306 304 307 311 309 306 307 311 317 318 316 316 316 317 317 318 317 314 313 317 321 320 318 316 315 314 313 314 315 314 315 318 318 315 313 314 313 313 313 315 316 315 315 321 324 323 321 321 320
306 309 308 303 306 310 311 313 313 311 312 312 310 311 312 313 314 314 311 308 306 306 308 312 315 313 312 314 314 314 314 312 313 316 313 311 312 313 314 312 307 306 307 307 305 305 310 316 317 313 313 315 316 316 315 314 313 312 314 316 317 318 316 314 313 313 313 314 313 313 315 315 313 313 312 312 312 313 313 314 314 314 317 320 320 319 321 320
308 307 308 307 307 307 308 311 314 313 312 311 310 311 312 312 314 313 310 310 312 310 307 309 314 314 313 315 315 314 315 313 315 318 314 311 312 312 313 315 312 305 303 306 306 304 308 317 316 310 312 314 314 314 313 312 311 311 312 315 315 314 313 313 313 313 313 313 313 313 314 313 311 311 312 311 311 312 312 312 313 313 314 316 317 318 318 319
304 302 304 309 311 308 308 310 313 314 313 310 310 312 312 312 313 313 311 311 312 314 310 310 312 313 313 315 315 314 314 314 318 320 316 314 315 314 313 314 314 309 305 305 307 305 307 313 313 310 313 315 312 311 311 309 307 307 309 313 314 311 311 313 313 313 313 313 312 312 313 312 311 310 311 311 311 312 312 313 313 313 315 316 317 318 317 317
302 300 301 308 313 312 309 309 310 311 311 311 310 310 311 314 314 313 312 312 312 313 313 312 312 312 314 315 315 313 314 315 316 316 313 312 313 312 312 313 313 313 309 305 307 308 307 310 313 313 314 315 310 308 307 306 307 307 308 310 311 310 310 311 312 312 312 312 312 312 312 311 310 311 311 311 311 311 313 315 315 315 317 317 317 317 317 316
Wind_Speed
1 0 1 3 3 2 4 5 6 7 6 6 10 14 12 11 12 9 10 16 19 20 22 21 17 15 15 18 18 4 5 3 3 5 3 1 4 7 10 10 10 9 7 7 6 7 7 7 7 7 6 4 2 3 3 1 1 1 1 2 4 4 3 2 3 2 1 2 3 3 3 4 1 2 1 1 4 5 5 5 5 6 6 7 6 14 16 14
2 1 0 3 3 1 3 4 5 7 9 7 7 11 12 10 9 10 11 15 18 19 20 21 16 14 13 17 16 2 4 1 4 3 3 2 6 8 9 8 8 7 6 5 6 8 7 5 6 8 4 3 3 2 3 1 0 2 1 3 3 2 1 3 4 4 3 2 2 3 2 3 1 1 2 1 5 6 6 7 6 8 8 10 10 14 17 16
3 2 2 4 4 2 3 3 4 5 8 8 7 9 12 11 8 10 13 14 18 19 18 18 16 14 12 14 12 2 2 4 4 1 1 6 9 9 9 6 6 5 6 5 7 9 9 9 5 9 4 3 3 2 3 1 1 2 1 3 2 0 1 4 5 4 4 4 2 1 2 1 2 1 2 3 6 6 8 7 7 9 9 10 11 14 18 17
4 4 3 4 6 4 3 4 4 3 4 6 7 8 11 12 9 10 15 15 17 18 16 17 16 14 12 12 9 2 3 4 2 1 3 8 9 10 8 5 4 4 5 5 6 9 10 13 5 6 4 3 3 2 3 2 1 1 1 3 1 2 2 3 4 4 3 3 3 3 2 2 3 1 2 3 6 6 7 7 7 8 10 11 11 15 18 16
6 6 4 4 6 6 5 5 5 4 5 5 7 8 10 12 11 12 15 16 17 17 15 16 15 14 12 10 7 4 4 2 2 1 5 8 9 8 7 4 2 4 4 3 5 7 9 9 4 3 4 2 3 3 2 3 2 1 2 1 2 2 1 1 4 3 3 1 2 3 1 2 2 2 5 5 6 5 3 2 1 1 1 2 5 11 15 12
6 7 6 6 6 7 8 8 6 5 6 7 8 9 9 12 14 14 15 16 16 15 14 14 14 13 10 7 6 5 3 1 2 1 6 9 8 7 5 2 3 3 2 2 5 6 6 6 4 3 3 3 4 4 2 3 1 2 2 1 3 1 0 1 3 1 2 1 2 2 2 3 3 5 6 9 12 8 2 4 4 5 5 4 6 7 9 9
7 7 7 7 7 8 10 10 7 7 7 7 8 9 10 11 13 13 13 16 15 14 13 12 14 11 6 4 5 3 1 0 2 4 8 9 9 7 4 2 2 3 2 3 6 6 5 6 5 3 3 4 3 3 2 1 2 2 4 1 2 1 0 2 2 2 1 2 3 2 4 3 6 6 2 8 14 11 7 3 6 6 5 3 4 6 6 8
8 8 7 8 8 9 11 10 9 8 9 8 9 10 10 11 12 11 11 14 14 13 12 11 13 10 4 1 2 1 1 1 2 6 9 9 9 8 3 1 1 1 1 4 6 4 4 6 6 3 4 3 1 1 1 1 3 4 3 1 1 0 1 4 3 3 2 4 3 3 4 6 8 4 4 12 13 10 11 7 5 7 6 5 6 7 7 7
9 9 9 9 9 9 10 11 10 9 9 9 10 11 11 12 12 11 10 12 12 12 11 11 12 8 3 1 1 2 1 0 4 7 8 8 9 7 4 3 2 2 3 4 6 5 3 3 3 1 1 2 1 1 0 2 2 3 1 1 1 2 3 4 4 5 4 4 2 2 6 7 5 3 8 16 15 12 11 10 8 7 7 7 7 8 7 7
10 10 10 10 10 10 10 11 10 10 10 10 11 12 12 12 11 11 10 11 11 11 11 10 11 6 1 1 1 1 1 2 5 7 7 7 9 7 3 2 2 3 4 4 3 4 1 2 2 3 3 1 1 1 1 1 1 1 1 3 3 2 3 5 4 5 5 4 5 4 6 7 2 1 7 10 6 7 9 9 9 8 8 8 7 8 8 8
10 10 10 10 10 10 9 10 11 11 11 11 11 11 11 11 10 10 10 10 9 10 10 9 9 4 1 2 1 1 2 3 4 5 6 6 8 8 4 5 3 3 4 3 3 3 2 2 1 2 2 1 1 0 0 0 1 1 1 4 5 4 4 6 6 5 4 2 5 5 7 9 3 3 13 9 3 4 7 7 8 8 8 8 8 8 7 7
10 10 10 10 10 10 9 10 11 12 12 11 10 10 10 9 9 9 9 9 8 8 7 7 7 2 1 3 2 1 1 4 4 5 6 6 8 9 6 4 3 4 4 3 3 4 2 0 1 2 1 1 1 1 0 1 1 1 1 4 4 5 5 7 7 4 3 2 4 3 7 8 6 11 18 9 6 5 6 7 7 8 8 7 8 8 7 8
10 10 10 10 10 10 9 10 11 12 12 11 10 9 9 8 8 8 8 7 7 6 5 5 4 1 1 2 2 1 2 4 4 5 6 5 6 9 8 5 2 5 5 2 1 4 4 3 4 4 0 1 2 1 1 1 1 1 2 3 3 3 4 5 5 4 3 2 4 2 4 5 6 15 15 5 9 7 6 7 7 7 7 7 7 7 6 8
11 11 11 11 11 10 10 10 11 12 10 10 9 9 8 7 8 7 7 7 6 6 5 5 2 2 1 2 2 2 2 4 3 5 6 3 3 4 7 7 2 3 6 4 2 5 6 6 7 5 2 2 1 1 1 1 1 0 2 2 3 3 2 2 4 5 4 1 3 2 2 7 9 9 7 7 9 8 6 8 7 7 7 7 7 7 7 7
10 11 12 11 12 11 11 11 11 11 9 9 8 8 7 6 7 8 8 7 4 4 5 4 4 4 2 2 2 3 3 3 3 5 4 2 1 2 5 7 7 4 4 5 6 9 8 7 6 4 2 0 1 1 1 2 3 2 1 2 3 3 2 2 2 4 3 1 4 3 1 8 9 3 7 6 7 7 7 8 7 8 8 8 7 7 7 6
10 11 11 12 12 12 12 11 11 10 9 8 7 5 6 6 8 8 7 4 3 3 3 3 6 5 3 1 3 3 3 2 2 4 5 3 3 4 4 4 6 7 7 9 10 9 6 5 3 0 1 1 1 0 3 2 2 3 3 2 2 4 3 2 1 2 1 1 4 5 3 6 5 2 5 6 7 8 8 7 8 9 8 8 7 7 7 6
9 10 11 12 12 12 11 11 11 10 9 7 4 4 5 6 6 5 4 3 3 2 3 2 2 3 2 1 2 2 2 2 2 3 4 3 4 4 1 0 3 5 7 7 6 4 3 3 1 1 1 1 1 1 2 3 4 4 4 4 3 3 4 2 2 2 2 2 3 5 6 10 10 6 5 6 8 8 8 9 9 8 7 8 7 7 7 7
9 9 10 11 11 10 10 11 11 10 8 5 3 3 5 5 3 2 2 3 2 2 2 2 1 1 1 1 1 2 2 2 2 3 4 2 2 1 2 0 2 3 4 2 1 1 1 1 1 1 1 1 1 2 2 4 3 1 2 2 3 3 4 4 2 1 3 3 4 5 8 14 16 13 11 10 9 10 11 10 9 8 8 8 8 8 7 8
9 9 9 9 9 9 9 10 10 9 6 4 3 3 4 3 3 3 3 3 2 2 1 1 0 1 0 1 2 3 2 1 2 4 3 2 0 0 0 1 2 1 1 1 0 1 0 1 1 1 2 3 2 3 3 2 1 1 1 1 3 4 5 3 2 1 2 2 6 8 9 13 16 15 12 11 9 11 12 10 9 8 8 8 8 8 8 9
8 8 8 8 8 8 8 8 7 6 5 4 2 3 3 2 2 1 4 4 1 0 1 1 1 1 1 1 2 2 2 1 1 3 4 3 2 1 1 2 1 1 1 1 1 0 1 1 3 3 2 0 1 2 2 2 1 1 2 2 3 4 5 2 3 1 2 1 6 8 9 12 15 16 13 10 9 10 11 10 10 9 9 8 9 9 9 9
7 7 7 7 6 6 6 5 5 4 5 5 3 2 1 1 1 1 2 2 1 1 1 1 1 1 0 1 3 3 1 0 1 2 5 4 2 1 1 2 2 1 0 2 2 1 1 2 3 2 1 2 2 3 4 2 2 1 2 3 4 5 5 1 4 2 1 0 5 7 9 12 13 16 15 12 10 11 12 11 12 11 10 8 9 9 9 7
7 7 7 6 5 5 5 4 4 4 5 5 4 3 2 2 1 1 1 1 1 2 2 1 1 2 2 2 2 2 1 1 1 2 5 5 1 0 1 2 2 1 1 2 2 1 1 3 1 3 1 2 1 3 3 2 1 0 0 2 3 4 2 2 3 1 2 2 4 6 9 13 15 17 18 16 13 12 11 11 12 12 11 10 9 9 8 7
7 6 6 6 5 4 4 3 3 4 5 5 4 3 2 1 4 4 1 2 1 2 2 1 1 1 2 1 1 1 2 1 1 2 5 5 1 0 0 2 2 2 2 3 3 2 3 2 1 2 2 2 1 2 1 0 1 2 3 1 3 2 1 0 1 2 3 4 3 7 8 11 13 14 15 13 9 7 5 3 3 5 7 7 6 7 8 9
7 7 6 5 4 4 3 3 3 4 5 5 6 6 6 6 8 5 1 1 1 1 1 1 0 0 1 1 1 0 1 1 1 0 5 4 1 1 1 2 1 2 2 3 2 2 2 1 1 1 2 2 1 1 2 1 2 4 4 2 4 1 2 2 3 6 5 1 2 5 7 7 6 6 8 6 3 4 2 0 3 1 2 1 1 1 5 9
7 7 6 4 3 4 3 2 3 5 5 5 7 9 9 10 8 3 1 1 1 1 1 0 1 0 1 1 0 1 1 1 1 1 4 3 1 0 1 1 0 1 2 3 0 3 2 1 1 1 2 2 1 2 3 2 1 3 1 2 2 2 3 3 6 7 5 3 2 2 4 6 5 6 9 7 4 5 2 3 6 5 4 4 3 3 3 4
6 7 6 4 4 6 3 1 3 4 4 4 7 7 6 5 3 2 2 1 2 1 0 0 1 1 1 1 0 1 1 1 1 1 2 2 1 1 1 0 1 1 2 2 1 1 1 0 1 0 2 2 1 3 2 3 1 2 2 4 3 2 3 4 5 4 2 4 4 3 2 5 8 10 10 8 7 7 3 4 7 6 6 6 6 6 5 4
5 6 6 4 5 7 4 1 2 3 2 2 5 5 3 2 5 3 3 0 2 1 0 0 1 0 1 0 0 1 1 1 1 1 2 2 1 0 1 1 1 0 1 2 0 1 2 2 1 1 0 2 2 3 2 1 1 2 3 4 4 3 3 3 3 1 2 5 3 2 4 2 7 10 7 5 7 6 4 7 8 7 7 8 6 7 7 7
5 5 5 3 5 8 5 3 1 2 1 3 3 2 5 7 5 2 2 0 2 0 0 0 1 0 1 1 1 0 1 1 0 0 1 1 0 1 0 1 3 2 1 2 2 3 1 3 3 1 1 2 2 1 3 3 1 2 2 2 2 3 2 2 1 2 3 3 4 2 2 1 6 9 6 2 4 6 7 7 7 8 7 7 7 7 8 8
4 5 3 3 6 10 6 1 1 2 3 4 0 6 9 7 3 3 2 1 1 0 1 1 1 1 1 1 1 1 2 1 0 1 2 1 1 1 1 1 4 4 1 0 1 1 0 2 2 1 2 2 1 1 4 3 1 1 2 2 0 1 1 1 1 2 2 2 4 5 3 1 5 8 6 2 2 5 5 2 5 8 7 7 7 7 8 7
3 3 1 3 5 8 6 4 5 5 5 2 6 9 8 4 2 3 1 2 1 0 1 0 1 1 1 2 2 2 2 1 1 2 1 1 0 1 0 1 2 3 1 1 2 1 1 1 0 0 1 2 3 2 2 2 1 2 2 2 1 1 0 0 2 1 1 2 5 4 3 2 2 7 6 3 2 4 2 2 1 6 7 7 7 7 8 7
3 2 2 5 6 6 4 2 4 5 3 4 9 8 4 1 2 1 2 1 1 0 1 1 0 0 1 1 2 1 1 2 1 1 1 1 1 1 1 0 0 1 0 1 1 1 1 1 0 0 0 1 3 2 1 1 1 1 1 1 2 1 1 2 1 1 1 3 4 2 1 2 2 6 5 4 3 3 3 2 2 5 7 7 7 7 7 7
1 0 4 7 7 7 6 2 1 2 6 9 7 3 1 1 0 2 2 2 1 1 1 1 0 1 1 1 1 1 1 1 1 0 1 1 1 2 3 3 2 1 1 2 1 0 1 1 2 2 2 1 3 1 1 2 2 0 1 3 3 2 2 1 1 1 2 4 3 2 1 1 5 9 9 11 11 7 2 2 3 3 5 6 7 7 7 7
0 1 3 7 8 7 7 4 1 4 10 8 3 0 1 1 2 2 2 1 0 1 0 1 0 1 1 1 2 1 1 1 1 0 0 0 0 2 2 2 3 2 1 1 0 1 2 2 1 2 1 1 2 2 1 1 1 2 2 3 2 1 1 2 2 2 2 2 3 3 2 2 5 7 9 11 8 3 2 4 3 3 1 4 7 7 6 7
2 2 3 5 7 7 6 5 3 8 10 5 2 2 2 1 2 0 1 1 1 1 0 1 1 1 2 0 1 0 1 1 0 1 0 1 1 2 2 2 3 3 2 1 1 2 2 3 2 1 0 1 1 2 2 1 2 3 3 4 3 3 2 2 2 2 3 2 2 3 2 4 3 4 6 5 4 4 3 3 3 1 2 3 4 7 6 7
3 3 3 2 3 5 5 5 7 11 8 3 2 2 1 3 2 1 0 1 0 1 1 2 0 1 1 1 1 1 1 0 1 1 1 3 2 3 3 3 5 4 3 1 1 1 2 3 1 0 2 1 1 1 1 2 1 2 1 4 2 2 2 2 1 2 1 2 2 2 3 5 5 8 9 4 3 2 2 3 2 2 4 1 3 6 6 6
3 3 2 1 1 2 4 7 12 12 6 2 2 1 3 3 1 1 0 0 1 2 1 2 1 1 2 1 1 2 0 1 0 1 2 4 3 4 2 1 3 5 5 3 1 1 1 3 1 1 2 1 1 1 1 1 1 1 2 1 3 2 2 1 1 1 2 1 4 4 4 6 3 8 9 1 2 3 2 3 3 5 5 4 4 5 6 6
2 1 0 1 1 2 6 10 13 10 3 2 2 3 3 2 1 1 0 0 1 1 2 1 1 2 2 1 1 1 1 0 1 1 1 2 2 3 3 1 1 3 3 2 1 1 1 2 2 1 0 1 1 2 2 1 1 2 2 3 3 1 1 1 0 2 1 4 4 4 6 5 2 5 5 3 2 6 5 6 5 5 6 6 6 6 6 7
1 1 1 2 2 3 7 11 12 7 1 1 2 4 2 2 2 0 1 0 1 0 2 1 1 1 1 2 1 2 2 1 2 2 1 2 2 2 5 1 2 1 1 2 0 1 2 1 3 2 0 1 1 1 2 2 1 2 3 2 1 1 0 1 1 1 2 4 4 4 7 5 4 5 4 3 5 7 6 6 5 6 7 6 7 7 7 7
1 2 1 2 3 5 9 11 8 3 1 2 3 3 1 1 1 1 1 2 1 1 2 2 1 0 1 2 1 2 3 2 3 3 2 2 2 1 2 2 0 1 1 2 2 1 2 1 3 3 1 1 1 1 2 1 1 1 1 2 1 1 2 2 2 1 2 3 4 4 5 4 6 6 6 7 6 3 4 6 6 7 7 7 7 7 7 7
2 1 1 3 4 8 10 8 4 2 2 3 4 3 0 0 0 2 1 2 0 1 1 1 0 1 2 2 1 1 2 2 2 2 1 2 2 2 1 1 3 3 0 2 0 1 2 2 2 3 3 1 2 3 5 5 3 2 1 1 1 1 1 1 2 2 3 2 3 4 6 5 5 5 6 7 4 2 3 5 6 7 7 8 7 7 7 7
1 1 1 3 6 9 10 5 2 2 2 2 2 1 0 0 0 1 1 2 1 1 1 1 1 1 2 2 2 2 3 2 3 2 2 2 2 1 1 2 2 5 3 2 1 1 1 2 2 1 1 3 4 2 0 2 3 5 5 5 5 4 3 1 4 3 2 2 3 3 8 7 4 4 5 5 3 2 2 3 4 5 5 7 7 8 8 8
1 1 1 2 7 10 6 2 1 1 1 2 1 1 1 0 1 1 1 1 1 1 1 1 2 2 2 2 2 2 2 2 4 3 3 4 4 1 1 3 2 2 4 2 2 2 1 2 2 3 3 3 3 1 1 1 0 2 3 3 3 5 5 4 4 2 1 1 1 2 6 7 3 5 7 5 4 2 1 2 4 5 5 5 6 7 8 8
1 1 1 2 7 8 2 1 2 1 2 2 1 1 1 1 1 1 1 1 1 1 1 1 2 1 1 1 1 2 2 2 5 5 3 3 2 0 1 3 3 0 2 1 1 1 1 1 2 3 2 0 1 1 1 2 2 0 4 3 3 3 3 4 3 2 1 2 2 1 7 6 1 2 4 3 4 4 4 4 6 6 6 5 5 7 7 7
0 1 2 2 6 6 2 2 3 3 4 0 2 0 0 1 2 1 1 3 3 2 2 2 2 0 1 0 1 2 2 2 3 4 2 2 2 1 1 2 2 1 1 0 1 1 1 2 2 1 3 3 3 2 3 3 0 2 4 3 5 5 1 2 0 1 2 4 7 4 9 9 3 3 5 5 5 7 7 6 6 6 7 6 6 6 7 7
0 1 2 2 5 4 1 1 2 1 3 2 0 2 2 1 2 1 1 2 2 2 2 1 1 0 1 2 2 1 1 1 2 1 1 1 2 1 1 1 2 1 2 1 1 0 1 2 3 4 3 4 4 3 3 2 2 3 4 5 7 8 7 3 0 2 4 6 9 7 9 12 8 6 9 9 5 6 8 6 7 7 7 7 6 6 6 6
1 0 0 1 1 2 2 0 1 1 2 3 1 3 4 3 1 1 0 1 1 2 1 1 1 0 1 2 1 2 3 1 0 2 2 2 0 1 1 1 1 1 1 1 2 0 1 2 4 5 7 7 5 4 3 3 3 3 4 6 7 8 9 6 1 4 6 5 7 9 11 16 17 14 16 15 9 7 8 7 7 8 8 7 7 6 6 6
1 1 2 2 1 2 2 2 3 3 2 3 2 2 4 3 1 1 1 1 0 1 1 2 2 3 3 3 2 3 2 0 0 1 3 4 1 2 1 1 0 2 1 1 2 1 1 3 6 8 10 9 5 3 4 4 4 6 6 6 8 8 8 8 9 11 7 4 9 12 11 15 18 17 19 20 13 8 7 8 7 6 7 7 6 5 6 6
1 1 1 2 0 2 2 4 6 6 4 3 2 2 4 4 3 2 2 0 1 1 2 2 4 7 7 5 4 3 1 0 2 4 3 3 3 0 1 2 1 3 2 1 2 1 1 4 5 6 9 11 8 6 5 6 5 5 6 8 8 9 12 15 16 14 8 7 13 13 11 14 15 16 20 21 16 10 7 7 6 4 5 6 6 6 7 8
1 1 1 1 1 3 2 2 4 7 7 5 3 4 5 6 7 4 2 3 1 4 5 4 6 10 9 7 5 4 4 3 3 4 3 2 3 2 1 1 1 1 1 1 1 0 1 3 4 2 5 9 9 8 6 6 5 5 7 8 9 14 18 16 15 15 13 15 18 17 17 16 14 19 23 22 19 12 7 8 8 7 6 6 6 7 8 8
1 1 0 1 1 1 1 1 3 5 5 5 4 4 4 7 8 4 2 5 4 3 5 7 8 9 10 9 7 7 8 7 4 4 5 4 2 3 3 2 2 1 1 2 1 1 1 2 1 1 2 8 8 6 4 5 6 6 6 8 13 17 14 11 14 14 13 16 19 18 17 15 17 23 23 21 20 15 10 11 12 10 9 8 8 9 8 8
1 1 1 1 1 2 2 1 4 4 3 5 5 4 3 7 9 5 3 7 8 6 9 11 9 6 6 9 11 13 11 8 4 3 7 6 4 4 3 2 5 5 3 3 2 2 3 2 1 3 2 6 4 2 1 1 2 2 4 12 20 18 11 12 14 12 13 17 17 12 10 13 18 20 16 15 16 13 11 12 10 9 9 9 9 9 8 8
1 2 1 1 1 3 4 2 3 4 4 5 7 6 5 5 5 6 3 5 5 4 5 9 8 5 4 8 12 11 7 3 3 4 5 4 4 4 3 3 6 7 6 5 3 3 5 3 1 2 3 5 3 2 1 2 4 3 8 16 20 16 12 13 12 11 14 14 10 8 12 15 16 13 12 15 14 9 9 9 9 9 9 8 9 9 8 9
Wind_Direction
301 315 137 166 191 262 305 324 335 354 355 346 6 356 345 342 342 351 349 345 347 345 336 334 340 337 331 338 346 346 182 177 197 212 196 17 333 304 293 285 281 278 275 280 283 277 254 230 215 200 179 173 206 137 158 172 73 253 175 214 244 238 246 353 13 354 305 107 119 178 209 270 239 158 154 88 243 239 250 241 223 221 216 229 173 144 149 152
275 286 236 184 193 279 313 332 323 339 347 342 8 355 337 334 337 341 337 337 340 337 329 329 335 332 327 338 348 335 192 223 249 230 114 355 330 311 296 284 276 268 263 268 277 276 257 228 185 184 202 176 166 163 184 161 147 227 205 225 235 249 306 14 16 24 4 28 89 138 168 290 333 102 116 223 237 202 230 247 221 229 225 223 202 161 156 160
270 282 280 210 212 273 313 319 310 324 336 335 342 344 337 322 320 333 328 330 333 327 325 326 327 326 321 334 350 357 278 304 270 195 75 338 336 315 304 294 269 252 250 245 280 299 301 296 215 179 218 203 170 172 182 141 172 206 232 242 232 18 57 37 27 42 18 360 347 75 102 278 278 88 126 237 261 220 219 224 205 224 225 216 208 178 166 169
279 284 286 244 232 249 293 292 280 287 314 324 321 329 337 321 309 324 325 325 324 321 322 322 321 318 313 326 345 359 329 305 253 105 345 334 333 316 311 302 254 227 239 239 280 295 294 297 260 186 227 217 155 144 178 153 104 199 218 235 285 5 35 49 47 41 11 14 339 344 70 271 271 197 202 248 271 250 233 223 209 218 220 211 205 186 172 173
281 283 281 264 249 250 273 282 275 276 289 307 321 329 332 323 314 316 321 321 316 317 318 318 320 312 304 316 327 331 324 278 156 127 324 331 330 324 318 296 216 209 226 223 277 280 271 279 270 227 250 225 150 154 174 121 82 289 228 178 53 23 24 67 76 44 345 18 284 294 300 300 340 269 234 236 243 239 229 207 214 53 177 196 170 170 167 170
279 282 279 273 263 258 270 281 281 276 286 304 322 329 319 315 317 314 317 316 312 312 311 317 325 315 298 303 314 320 308 267 103 317 323 338 340 339 326 289 181 197 205 233 275 265 254 250 235 230 244 247 186 168 109 92 97 256 242 104 89 86 135 72 80 69 314 297 247 273 314 327 309 266 229 219 231 229 179 107 93 68 68 62 84 126 159 173
282 285 286 284 275 269 274 280 284 280 285 295 311 319 308 307 312 311 314 314 309 306 304 315 330 322 291 292 317 324 276 263 31 336 334 346 350 353 338 267 198 187 176 259 270 250 241 229 222 219 221 249 218 161 83 94 172 219 254 225 113 54 159 99 102 179 257 264 262 321 330 297 257 268 265 234 237 232 235 168 126 121 119 128 124 143 174 188
286 290 291 291 284 279 280 284 285 284 286 291 301 308 307 306 306 309 307 302 301 301 301 311 330 325 267 241 306 277 201 210 359 347 341 348 353 360 16 2 272 200 206 265 273 279 278 236 225 228 226 248 261 135 85 206 185 210 259 268 126 279 149 122 139 184 210 240 255 300 279 257 249 275 301 257 247 232 237 234 175 154 153 178 190 184 189 196
289 291 292 293 292 288 286 289 288 286 288 291 298 303 306 306 306 309 301 293 295 299 302 312 329 325 244 198 259 269 237 316 10 354 344 348 354 6 41 31 329 285 276 268 284 310 333 268 251 302 291 276 289 103 122 235 204 218 302 19 202 195 155 148 192 194 195 228 203 252 263 257 256 312 276 253 248 236 224 229 214 181 179 194 199 199 199 200
286 288 291 291 291 289 287 290 290 292 295 295 298 301 304 304 304 305 298 298 296 299 307 315 327 327 252 282 323 315 301 4 10 349 344 347 352 4 10 322 287 266 266 244 264 288 328 352 344 38 28 319 245 51 64 217 221 260 353 317 272 214 170 172 214 202 190 217 181 208 269 263 235 66 261 250 241 222 201 210 209 189 201 207 208 212 208 206
280 281 284 285 286 289 289 291 291 293 295 297 299 301 304 301 300 301 300 302 297 301 311 320 327 322 321 334 318 268 290 4 9 345 348 349 351 357 333 299 268 231 270 245 196 252 297 6 9 68 25 335 161 125 295 238 287 311 344 296 256 215 218 200 217 213 185 208 186 207 268 260 207 189 248 241 127 154 171 194 202 202 219 217 219 217 208 209
275 275 277 280 284 288 289 288 287 289 291 296 298 301 302 298 300 303 304 302 293 297 304 322 329 311 344 322 253 249 356 21 12 354 356 360 3 1 354 327 241 204 263 287 195 219 228 201 97 94 323 320 114 148 259 246 285 334 307 290 250 212 233 210 198 183 172 181 177 218 281 261 199 218 245 229 154 162 174 196 200 208 222 220 223 213 203 202
274 275 277 278 282 284 284 281 280 284 288 294 299 301 300 300 306 305 305 299 287 289 288 307 322 150 331 306 211 167 49 31 17 359 350 358 9 7 9 3 236 210 234 281 201 185 174 162 122 111 24 20 111 172 264 227 280 348 211 253 269 244 243 194 162 133 155 179 168 196 294 272 226 229 240 185 150 168 187 211 205 205 210 211 216 202 201 197
276 278 280 280 283 286 284 278 277 281 286 292 296 299 303 306 308 304 300 293 279 279 278 284 274 168 247 264 132 111 79 50 35 351 337 350 5 10 22 24 39 208 222 230 191 153 141 133 119 107 49 38 120 206 285 197 213 279 187 218 239 247 253 171 150 153 166 216 182 154 248 268 279 243 205 149 163 172 194 218 210 211 208 204 205 195 205 203
279 281 282 283 286 289 288 282 277 280 283 286 291 297 301 302 304 302 294 285 270 270 278 270 223 196 263 236 130 110 110 80 49 353 351 54 18 48 58 48 62 88 142 153 138 128 125 118 107 96 67 13 101 78 232 198 217 216 186 234 202 197 224 181 167 176 182 277 195 161 219 264 282 244 150 149 175 181 206 223 213 215 209 198 196 191 206 208
276 278 280 282 286 287 288 283 277 277 276 278 286 288 289 296 299 298 289 271 249 258 256 233 203 203 280 244 144 128 116 79 40 359 11 68 74 82 85 64 66 76 103 112 112 111 103 88 75 95 128 147 113 108 261 238 227 215 205 250 193 187 220 196 219 228 204 230 198 199 263 276 270 173 156 170 185 197 215 228 224 218 207 197 191 191 202 202
271 272 276 279 282 282 282 279 275 272 268 269 274 272 285 298 296 287 281 251 237 248 228 240 213 196 245 163 145 136 92 41 25 2 14 65 123 110 55 5 94 100 105 100 102 96 53 56 27 265 128 177 203 104 287 255 236 212 201 249 264 228 236 234 249 240 189 196 222 216 238 260 260 249 231 209 197 204 213 221 227 222 206 197 189 190 197 197
271 270 274 275 275 275 272 273 271 266 262 258 246 263 289 296 289 279 264 232 239 262 240 274 334 201 220 81 115 73 52 11 33 31 12 32 155 162 339 299 159 146 121 104 99 60 8 54 34 350 135 209 232 167 196 239 246 132 159 234 302 291 257 252 241 215 195 189 225 235 240 257 264 264 255 239 213 210 218 218 220 220 210 199 191 196 196 195
273 273 277 276 273 270 268 269 267 261 253 232 227 271 289 277 280 282 231 212 235 262 246 273 310 220 242 68 93 56 23 339 52 38 12 5 330 236 305 173 173 162 149 174 248 329 336 99 72 298 210 198 203 202 214 274 348 40 97 267 306 304 281 269 117 173 258 214 231 239 243 258 269 269 261 251 224 214 225 224 217 217 212 202 194 197 194 196
277 283 287 282 276 271 271 270 262 251 222 200 220 272 276 252 262 254 205 209 222 275 263 3 348 276 218 60 32 5 357 98 85 36 23 358 342 339 253 212 188 222 232 130 99 356 58 135 208 203 208 161 33 336 307 313 309 294 321 304 274 273 276 271 104 173 287 283 250 248 253 263 271 274 270 261 240 227 229 226 224 219 214 210 202 197 191 194
286 294 296 289 282 274 276 271 248 220 194 193 208 236 301 309 268 149 179 202 126 174 241 61 28 239 151 18 357 341 315 118 154 76 30 356 332 25 182 192 197 205 191 88 92 40 69 233 232 146 55 358 359 329 313 276 252 307 314 296 283 269 268 58 98 204 178 86 269 283 287 277 276 279 277 268 252 242 233 225 226 220 215 216 210 207 196 178
291 297 301 294 284 274 267 254 228 205 194 200 212 251 322 12 347 333 262 257 170 190 219 152 196 195 112 43 7 3 235 248 158 126 15 3 55 94 131 191 222 176 114 109 121 142 192 215 183 69 1 311 305 304 320 323 307 291 255 316 299 269 275 52 82 188 151 188 273 314 310 286 278 277 275 269 256 247 239 229 224 213 210 215 212 213 202 169
296 300 303 291 267 253 241 229 223 210 207 208 212 258 293 342 348 346 299 271 243 196 214 199 214 181 129 116 35 41 222 261 149 152 359 7 114 349 331 213 221 130 140 189 174 203 216 206 66 27 324 300 285 295 292 328 306 223 192 213 264 291 18 252 302 308 229 208 279 320 304 283 278 274 271 267 258 257 254 251 243 194 195 209 204 207 199 182
302 303 300 285 248 226 220 222 222 220 224 229 239 255 264 286 318 328 249 263 247 179 177 165 265 315 137 141 28 55 195 351 93 135 354 0 121 357 292 223 206 129 165 191 207 263 218 108 10 295 299 289 272 299 256 245 281 231 197 214 255 327 31 244 314 323 286 239 347 319 301 277 274 285 288 296 333 316 293 292 313 289 198 211 104 221 210 188
307 308 307 287 232 204 205 217 215 228 231 235 250 259 267 276 289 296 197 311 284 195 25 147 193 252 132 114 32 93 113 67 41 356 355 6 64 97 234 301 226 158 132 128 147 283 246 62 358 229 238 262 269 275 240 192 281 254 201 353 318 37 19 323 337 339 339 345 304 7 347 291 293 309 293 294 298 283 238 205 247 243 224 228 219 221 239 205
307 313 313 281 215 187 182 173 186 213 221 230 248 255 275 273 239 120 79 350 283 233 66 148 161 178 162 121 18 97 85 267 287 348 359 17 6 203 161 13 62 110 110 117 129 283 200 213 328 305 224 219 242 271 229 146 100 284 286 325 334 40 25 357 3 11 355 287 254 125 110 275 299 299 277 267 259 247 199 210 233 225 212 215 213 201 205 215
309 317 315 276 205 176 158 96 157 185 195 247 259 252 256 155 141 108 67 34 268 245 108 347 12 184 162 86 248 97 75 227 195 349 336 10 7 81 121 178 117 78 160 116 291 282 119 151 206 5 321 204 208 249 274 106 128 233 260 309 343 24 19 27 44 102 238 286 295 143 153 238 292 288 269 251 262 267 244 233 226 211 201 195 197 195 191 201
312 320 311 269 199 179 157 74 119 196 298 335 314 206 160 141 142 99 66 265 269 308 76 114 71 69 128 113 208 118 117 179 134 289 257 358 39 92 83 172 127 130 191 139 215 260 163 164 189 133 137 211 201 230 320 346 123 211 266 307 5 27 5 37 86 229 262 321 318 247 168 176 264 279 289 251 262 287 277 249 218 202 194 180 186 190 183 192
315 320 300 240 201 193 184 38 307 254 309 324 94 145 146 145 127 71 72 266 261 18 23 98 125 112 128 156 185 166 164 165 339 207 202 298 300 123 135 150 113 112 86 118 172 274 354 160 188 139 166 206 165 45 341 1 122 225 274 262 263 48 331 36 139 252 289 283 263 238 181 174 267 279 290 296 279 272 273 268 196 189 180 174 179 178 174 182
320 325 269 190 188 198 210 281 276 268 304 305 148 143 146 147 69 51 272 260 119 127 335 101 189 149 182 212 175 170 190 148 129 172 179 295 316 87 44 284 117 123 124 71 86 71 96 94 4 168 149 147 124 85 355 21 127 248 271 260 222 150 131 229 198 235 6 255 259 240 173 142 287 277 264 226 210 214 234 332 173 161 158 167 171 169 170 174
331 342 179 168 167 183 197 257 266 260 264 149 145 142 146 133 58 65 247 259 96 242 273 100 32 229 210 201 158 187 168 124 147 173 179 188 119 101 80 289 209 115 147 171 80 76 131 127 254 127 18 128 125 91 348 322 282 269 292 349 21 356 351 23 2 49 103 252 271 279 149 126 225 265 264 237 245 246 243 260 166 162 173 173 169 172 170 167
349 345 180 179 177 182 188 181 342 216 163 148 149 158 124 29 305 219 245 333 39 236 222 111 29 245 187 121 150 207 129 135 247 263 174 197 176 187 198 196 175 62 306 233 220 6 193 190 124 82 330 241 156 130 9 320 295 299 59 61 52 348 324 354 319 183 202 245 256 247 328 245 241 256 264 270 280 290 284 130 108 145 180 178 174 174 169 162
94 164 185 193 194 197 207 230 303 157 156 150 155 184 53 9 261 223 234 300 332 230 125 99 18 13 79 131 179 173 92 230 246 151 195 41 242 240 240 192 145 118 257 241 226 305 318 326 138 125 320 259 185 177 165 267 219 167 137 114 125 189 289 273 259 237 238 258 253 258 286 269 274 267 252 257 258 239 83 83 86 71 110 206 188 170 163 163
122 143 166 192 206 219 223 232 206 160 154 141 108 62 56 260 259 274 212 241 269 272 356 87 171 49 41 184 212 122 135 265 306 102 161 83 45 271 256 205 161 124 106 345 302 216 251 289 230 153 265 231 182 181 194 167 158 183 162 118 134 158 185 233 245 268 281 302 285 310 306 218 232 261 234 204 175 169 124 103 98 51 308 279 177 154 153 163
113 121 119 139 204 221 210 195 172 162 159 130 85 91 138 239 262 348 266 260 284 228 312 337 255 115 329 260 260 303 150 238 353 61 174 181 186 227 213 191 192 165 132 169 260 187 208 257 255 231 264 246 104 242 290 45 117 224 97 93 141 197 183 205 205 224 264 328 287 253 252 220 215 270 267 204 168 220 152 130 131 241 259 276 151 161 165 174
105 93 97 109 213 208 180 173 167 164 167 121 105 198 226 238 238 104 156 226 120 143 113 340 304 202 271 235 225 279 81 115 291 78 199 204 216 234 206 128 196 190 160 166 209 86 228 281 304 216 269 343 16 313 331 54 170 274 79 135 240 227 143 169 275 357 80 303 261 204 254 285 298 291 288 220 216 265 187 185 220 221 212 199 201 196 186 191
114 50 175 194 232 181 162 166 166 167 181 147 171 228 222 224 227 152 55 240 285 104 109 49 256 188 242 241 190 189 135 352 191 149 230 220 242 229 188 74 289 207 160 145 210 174 154 276 280 222 258 294 301 326 315 269 139 106 162 242 271 273 84 112 295 339 327 264 262 198 228 272 302 282 307 35 293 265 228 216 222 208 194 201 223 221 203 198
148 261 233 203 203 173 158 161 165 171 184 155 224 253 204 203 255 356 17 305 296 316 149 204 234 143 187 230 173 136 142 161 162 170 243 218 228 198 166 154 349 349 53 76 112 217 132 260 281 290 155 194 213 335 300 302 34 123 201 251 3 113 238 177 173 261 249 259 283 244 234 236 205 239 285 288 257 250 222 208 210 212 206 211 227 224 210 199
196 237 225 177 173 164 158 160 163 175 182 162 216 251 200 223 272 57 4 307 296 196 214 234 225 118 188 183 142 136 160 170 162 182 229 195 214 246 172 169 134 326 353 84 142 214 114 128 267 291 306 157 124 186 210 238 33 41 332 334 40 176 196 187 183 181 199 256 290 280 263 235 208 224 234 234 246 243 204 204 215 225 218 213 216 211 207 202
228 249 183 147 156 160 158 158 159 178 185 176 204 221 174 286 209 98 39 338 321 173 257 286 155 178 213 204 218 184 175 192 188 198 229 183 217 284 335 107 141 160 39 49 102 258 95 129 236 299 327 300 197 207 193 177 157 135 156 223 211 211 188 197 257 197 165 233 276 289 279 239 211 237 223 217 253 277 201 208 224 228 216 208 207 203 204 205
243 245 204 137 149 156 154 154 164 173 194 222 214 194 156 225 145 116 78 16 1 62 41 335 255 205 196 212 254 205 176 215 220 218 243 218 214 254 337 21 128 150 128 61 293 238 144 152 191 219 252 223 224 244 151 154 157 157 176 194 187 177 139 97 272 245 163 209 204 234 276 258 213 236 231 221 257 259 178 190 233 245 225 210 207 201 201 205
240 213 211 129 161 164 153 161 167 114 203 234 232 105 117 159 99 114 113 43 322 239 72 10 242 228 200 204 223 191 182 210 201 203 239 221 204 215 306 337 337 150 126 108 225 226 133 120 217 232 207 207 235 292 49 10 101 141 190 204 167 170 169 175 231 245 191 253 149 150 270 265 218 229 243 249 266 273 139 192 231 264 265 235 215 203 202 208
234 181 122 126 176 176 152 171 175 177 228 253 343 101 116 152 171 120 149 182 221 216 183 236 230 246 259 246 155 173 208 217 189 194 233 239 213 225 284 334 343 77 115 112 199 201 83 137 219 265 271 294 291 328 10 348 21 229 249 227 161 186 189 173 190 193 191 204 139 167 264 260 274 288 272 284 299 300 288 234 222 250 270 266 240 208 200 206
265 96 71 129 179 181 179 184 187 219 216 220 5 188 175 249 201 165 198 199 191 190 214 244 250 331 340 349 93 199 225 230 203 205 226 237 249 279 284 1 22 92 109 165 188 157 234 182 160 256 302 323 323 342 338 321 267 235 249 199 193 220 184 82 151 217 257 203 174 205 263 256 266 323 299 290 292 286 276 246 220 235 252 256 249 224 201 194
127 45 32 129 170 183 206 179 162 192 166 129 332 232 195 225 212 182 212 207 200 181 186 263 288 32 61 64 40 285 256 195 220 280 1 248 255 286 295 14 40 64 40 340 269 319 220 200 156 164 213 240 244 247 251 232 172 225 238 185 193 210 196 183 235 198 232 217 187 201 255 262 269 292 287 277 264 274 280 253 218 226 239 236 233 229 207 188
160 233 279 132 186 223 234 155 131 170 154 147 232 231 188 194 206 110 124 214 205 153 144 268 268 77 96 112 120 262 252 237 308 340 324 255 242 31 245 296 60 94 60 304 273 355 57 268 229 203 218 221 206 207 203 144 128 185 204 189 195 206 197 191 207 218 217 224 222 222 241 265 277 281 280 276 260 254 271 259 234 232 235 230 226 225 216 200
169 239 179 157 319 271 249 252 191 201 197 170 184 195 183 191 173 103 218 243 28 92 186 225 186 181 186 164 184 238 237 274 15 264 252 231 206 30 318 285 199 140 131 293 273 138 98 273 243 227 243 245 231 221 187 167 197 198 182 196 205 200 190 191 216 224 199 204 250 240 228 251 270 272 272 275 268 250 251 258 258 243 221 217 215 211 213 217
182 294 137 140 236 191 219 241 202 201 216 194 188 181 174 181 178 195 228 235 15 199 191 220 217 212 206 174 166 197 182 71 246 234 235 223 211 106 8 293 248 135 131 12 348 95 156 259 241 223 253 264 268 265 212 194 222 206 195 214 209 199 200 203 219 225 199 214 250 253 235 239 260 270 269 272 271 258 248 259 264 235 191 182 187 199 213 222
123 313 351 42 267 182 191 232 181 194 209 201 209 200 184 196 204 207 147 107 276 235 190 210 228 214 212 198 178 190 183 181 235 239 219 208 215 199 195 266 273 110 142 154 346 349 178 257 258 235 277 278 273 268 235 217 238 230 224 231 222 221 218 212 224 231 223 234 249 257 259 258 264 266 265 270 274 270 264 269 267 254 233 216 220 233 233 229
132 268 175 69 320 194 163 86 136 176 205 198 216 221 196 207 211 206 139 154 196 216 184 214 229 203 198 201 200 214 203 187 221 232 187 180 212 211 213 212 147 121 216 169 182 281 207 241 262 86 310 277 269 267 240 225 243 245 253 256 243 241 237 224 231 232 228 241 248 252 265 271 263 259 260 267 273 277 273 267 265 257 246 238 239 242 237 234
257 297 135 120 260 165 144 142 138 156 207 199 204 216 212 220 210 191 205 206 195 177 180 204 214 187 181 199 213 227 223 207 217 195 166 168 184 193 201 159 129 137 183 189 169 162 181 239 341 65 290 272 283 318 218 214 307 287 262 254 245 240 235 225 229 224 217 232 244 252 261 259 255 258 264 263 264 270 269 260 256 249 235 221 220 224 228 234
273 279 234 130 251 193 155 142 156 179 219 195 190 204 213 222 189 158 193 240 203 172 190 195 179 150 176 209 219 229 230 198 165 151 154 156 151 161 174 167 152 149 165 178 166 158 176 209 259 145 225 266 295 340 77 46 345 277 222 233 238 235 231 234 243 238 222 221 230 237 239 246 255 267 274 269 264 262 258 250 242 239 227 207 204 211 223 234